Wind_Speed
39 39 39 39 38 38 38 37 36 36 36 36 36 35 36 36 36 36 36 35 35 35 35 36 36 36 36 37 37 37 37 37 36 36 37 37 37 38 38 38 38 38 38
40 39 39 39 39 38 38 38 37 36 36 37 37 36 36 36 37 37 37 37 37 36 35 36 36 36 36 37 37 37 38 37 37 37 37 38 39 39 39 39 39 39 39
39 39 39 39 39 38 37 37 37 37 37 37 37 37 37 36 37 38 38 38 38 38 38 36 36 36 37 37 37 37 38 37 37 38 39 39 39 40 40 40 40 39 39
39 39 39 39 39 39 38 37 37 37 37 38 38 38 37 37 37 38 38 38 38 39 38 38 38 37 37 37 37 37 37 37 37 38 39 40 40 41 41 40 40 40 40
37 37 37 37 37 37 38 37 37 36 36 37 38 38 38 37 37 37 38 38 39 38 38 38 38 38 38 37 38 38 38 38 38 38 39 40 40 40 41 40 41 41 41
35 36 36 37 37 37 36 36 36 36 36 36 37 38 38 38 38 38 38 38 39 39 39 38 38 39 39 39 38 39 38 39 39 39 40 40 40 40 40 40 41 41 41
33 34 34 35 36 36 35 36 35 36 35 36 37 38 38 37 37 38 38 38 39 40 40 40 39 39 39 40 40 39 39 39 40 41 41 41 41 41 40 40 39 40 40
32 33 34 34 34 35 35 35 36 36 36 37 38 38 38 38 38 38 38 39 39 39 40 40 41 40 40 41 41 41 40 40 40 41 41 41 41 41 40 40 39 40 40
30 31 33 33 33 34 34 34 35 35 35 36 37 38 38 38 38 39 39 39 39 40 40 41 41 41 41 41 41 41 40 40 40 41 41 41 41 41 41 40 39 39 39
29 29 30 31 32 33 34 34 35 35 35 36 37 37 38 38 39 40 40 40 40 40 41 41 41 41 41 41 41 41 41 41 41 41 40 40 40 40 40 40 39 39 40
28 28 29 30 31 32 33 33 34 34 35 35 36 37 38 39 39 39 39 40 40 40 41 41 42 42 41 41 41 41 41 41 41 41 41 40 41 40 40 41 41 41 41
28 28 29 29 30 31 32 33 34 35 35 36 36 37 37 38 39 39 40 40 41 40 40 41 41 42 42 41 41 42 41 41 42 41 41 42 42 42 42 42 42 42 42
27 28 29 29 30 31 32 33 33 34 34 35 36 37 38 38 38 39 40 40 40 40 40 40 41 41 41 41 41 41 41 42 42 41 41 42 43 43 43 43 43 42 42
27 28 28 28 29 30 31 32 33 33 34 34 35 36 36 37 37 38 39 39 40 40 40 39 40 41 41 41 41 41 41 41 41 41 41 42 43 43 43 43 42 42 42
29 29 29 28 29 30 30 31 32 33 34 34 35 36 36 37 37 37 37 38 39 39 39 40 40 40 41 41 41 41 41 40 40 41 41 42 42 42 42 41 41 41 41
30 29 29 29 29 30 29 30 31 32 32 34 35 35 36 36 36 36 37 38 38 38 39 39 39 38 38 39 40 40 41 40 40 41 41 41 41 40 39 39 39 40 39
31 31 30 29 29 30 29 29 30 31 31 32 33 34 35 36 36 36 36 37 37 37 37 38 38 37 37 38 38 39 40 40 40 41 41 40 39 39 38 38 38 39 39
30 31 31 30 29 29 29 30 30 31 31 32 32 33 34 35 35 35 36 36 36 36 36 37 37 38 39 39 40 39 39 39 40 40 39 39 38 38 38 38 38 38 38
29 30 31 31 30 30 30 30 31 31 31 31 32 32 32 33 34 34 35 35 36 36 36 36 37 37 38 39 39 39 38 38 38 38 38 38 38 38 38 38 38 38 38
28 29 30 30 30 30 30 30 30 30 30 31 32 32 32 33 33 33 34 34 35 36 36 36 37 37 37 37 37 38 38 38 37 37 37 37 37 37 37 37 37 37 37
28 28 28 29 29 30 29 29 29 29 29 30 31 32 32 32 33 33 33 33 33 34 35 35 36 36 36 36 36 36 37 37 37 36 36 36 36 36 37 37 37 36 36
27 27 27 27 28 29 29 28 28 28 29 29 30 30 31 31 32 32 32 33 32 33 34 34 34 34 35 35 36 36 36 36 36 35 35 35 35 35 35 36 36 35 35
26 26 26 27 27 27 28 28 28 28 28 29 30 29 30 30 31 31 31 32 32 32 32 33 33 33 34 34 34 35 35 34 35 34 34 34 35 35 35 35 35 34 34
26 26 26 26 26 26 27 28 28 28 28 29 29 29 29 30 30 30 30 31 31 31 31 31 32 33 33 33 33 33 33 33 33 33 33 33 33 33 33 33 33 33 33
26 26 25 25 25 25 26 27 28 28 28 29 29 29 29 30 30 30 30 31 31 31 31 32 32 31 31 31 32 32 32 32 32 32 31 31 30 31 31 31 31 31 31
26 26 25 25 25 25 25 26 27 27 27 28 28 28 29 29 29 29 30 30 30 31 31 31 31 30 30 31 31 31 32 32 31 30 30 29 29 30 30 30 30 30 30
Wind_Direction
247 245 245 246 247 248 248 247 248 248 249 249 250 251 251 251 252 252 253 256 256 255 255 256 256 257 259 260 262 264 265 266 267 268 269 269 270 272 274 275 276 277 277
246 245 245 245 246 247 247 247 247 247 248 249 250 250 250 251 252 252 253 254 256 256 256 255 256 258 260 262 262 264 265 267 269 271 272 271 270 273 273 274 276 277 278
245 244 244 244 245 245 246 246 247 247 248 248 249 249 249 251 252 252 253 254 254 255 255 255 257 259 261 262 262 264 267 268 270 272 273 274 273 273 273 274 275 276 277
244 243 243 243 245 245 245 245 246 248 248 248 247 248 249 251 252 252 253 253 255 256 256 257 258 259 260 261 262 263 266 268 270 273 274 274 274 274 273 273 274 274 276
243 242 241 242 244 245 246 246 247 248 249 248 248 248 248 250 252 252 253 254 255 256 257 258 258 259 259 260 261 263 265 268 271 273 274 274 275 275 273 273 274 275 276
243 242 241 241 242 244 245 246 248 249 250 249 248 248 249 250 251 252 253 254 256 257 258 258 258 259 260 262 263 264 266 268 270 273 274 275 276 275 274 274 275 276 276
244 242 241 241 241 244 245 246 248 249 249 250 249 249 250 250 252 253 254 255 256 258 258 258 259 260 261 262 264 266 267 268 270 272 274 274 276 276 275 275 276 277 277
246 244 242 242 243 244 245 247 249 249 249 250 249 249 250 251 252 254 255 255 256 257 258 259 260 261 262 264 265 266 268 270 272 274 275 274 275 275 275 276 277 277 278
247 246 245 244 244 244 244 247 248 249 249 250 249 249 250 251 253 255 256 256 256 257 258 259 261 262 263 264 265 267 269 272 274 276 276 274 275 275 276 277 277 278 279
248 246 246 246 245 245 245 246 248 249 249 249 249 250 251 252 254 257 257 256 257 258 258 259 261 262 262 265 266 267 269 271 274 275 275 274 276 275 276 277 278 278 280
248 247 246 245 245 246 248 249 251 251 251 250 250 252 253 254 255 257 257 257 257 258 259 259 260 262 263 264 265 267 269 271 273 273 274 275 276 275 275 277 278 278 279
248 249 248 248 248 249 251 252 253 253 253 253 252 253 254 255 256 257 257 258 258 259 260 260 261 262 263 264 266 267 268 271 273 273 274 275 277 276 276 277 278 278 280
248 249 250 250 250 251 252 253 254 255 255 255 254 254 255 256 257 257 257 259 259 258 260 261 263 263 264 266 267 268 269 271 272 272 274 276 277 277 276 277 277 278 280
249 250 250 251 251 251 252 253 254 255 255 256 255 255 255 256 257 257 258 259 259 259 259 262 263 264 265 266 267 269 270 271 272 273 274 276 278 277 277 277 277 278 280
251 251 251 251 252 252 254 255 256 256 256 256 256 256 256 257 257 258 258 259 260 259 259 262 264 264 265 266 267 269 270 271 272 274 275 276 277 276 276 276 277 278 279
252 252 252 251 252 254 256 257 258 258 258 257 257 256 256 256 257 259 259 260 260 260 260 261 263 264 265 266 268 269 270 271 273 274 275 276 276 275 276 276 277 277 278
253 253 253 253 254 255 256 258 258 258 260 260 259 258 257 257 258 259 260 260 260 260 261 262 263 264 264 266 269 270 271 271 272 273 275 277 275 274 276 277 277 278 278
254 253 254 255 257 258 258 259 259 259 260 261 260 260 259 257 258 259 259 259 260 261 263 264 264 265 265 267 268 269 271 272 273 274 275 276 275 275 276 276 277 277 277
255 255 255 255 258 259 259 259 260 261 262 262 261 261 259 257 258 260 259 259 260 261 263 263 265 267 267 267 268 269 272 273 274 275 275 276 276 275 276 276 276 276 276
256 255 256 257 258 259 259 260 261 262 262 262 261 260 259 258 258 259 259 259 260 261 263 264 265 267 267 267 268 270 271 273 274 275 276 276 276 275 275 276 277 277 277
256 257 257 258 259 259 260 260 262 262 262 261 260 259 259 259 258 257 258 259 260 261 263 264 266 266 267 269 270 271 272 272 273 274 275 276 275 275 275 276 277 278 277
256 257 258 259 260 261 261 260 260 261 261 260 260 259 258 257 256 256 258 260 262 263 264 264 266 267 269 270 271 271 272 272 272 273 274 275 274 275 276 277 277 277 276
256 258 260 262 263 263 262 260 260 261 261 259 259 259 259 257 256 257 260 262 263 264 266 266 267 269 270 271 271 272 272 273 273 273 274 274 274 276 277 277 277 276 277
258 260 263 264 265 264 263 261 260 261 261 260 260 260 260 259 258 258 260 262 264 265 267 269 269 270 271 272 272 271 271 272 273 274 275 276 275 275 276 276 276 276 277
259 260 263 265 266 265 263 262 261 262 261 261 261 261 261 260 260 261 262 263 264 266 268 270 271 271 272 271 270 270 270 271 273 274 276 275 274 276 276 276 277 277 276
258 261 263 266 267 266 264 263 263 262 262 262 262 261 261 261 261 262 262 262 264 265 267 269 270 270 271 270 269 270 270 271 273 274 275 275 275 276 276 276 276 276 276
Height
5701 5704 5707 5709 5712 5714 5717 5719 5721 5723 5725 5726 5728 5730 5732 5734 5735 5737 5738 5739 5741 5742 5743 5744 5745 5747 5748 5749 5749 5750 5750 5750 5751 5751 5751 5751 5750 5749 5748 5746 5745 5744 5743
5691 5694 5697 5700 5702 5705 5707 5710 5712 5714 5716 5718 5720 5722 5724 5725 5727 5728 5730 5731 5732 5734 5735 5736 5737 5738 5740 5740 5741 5741 5742 5742 5742 5742 5742 5742 5742 5741 5739 5738 5736 5735 5733
5681 5684 5687 5689 5692 5695 5697 5700 5703 5704 5706 5708 5710 5712 5714 5716 5718 5720 5721 5723 5724 5725 5726 5728 5729 5730 5731 5731 5732 5733 5734 5734 5733 5733 5733 5732 5732 5732 5731 5729 5727 5726 5724
5670 5673 5676 5679 5682 5685 5687 5690 5693 5695 5697 5699 5701 5703 5706 5708 5710 5711 5712 5714 5715 5717 5718 5719 5720 5721 5722 5723 5724 5724 5725 5724 5724 5724 5723 5722 5721 5721 5721 5720 5718 5716 5715
5659 5663 5666 5669 5672 5675 5678 5680 5683 5685 5687 5690 5692 5694 5696 5698 5700 5702 5703 5705 5706 5708 5709 5710 5711 5712 5713 5714 5714 5715 5715 5715 5715 5715 5714 5713 5712 5710 5710 5710 5708 5706 5705
5650 5653 5656 5659 5662 5665 5668 5671 5674 5676 5678 5680 5682 5685 5687 5689 5690 5692 5694 5696 5697 5698 5699 5700 5701 5702 5703 5704 5705 5705 5706 5706 5706 5705 5704 5703 5703 5701 5700 5699 5699 5697 5696
5641 5644 5646 5650 5653 5656 5659 5662 5664 5667 5669 5671 5673 5675 5677 5679 5681 5683 5685 5686 5688 5689 5690 5691 5692 5693 5694 5695 5695 5696 5696 5696 5696 5696 5695 5694 5693 5691 5690 5689 5689 5687 5686
5632 5634 5637 5640 5644 5647 5650 5653 5655 5657 5659 5661 5664 5666 5668 5670 5672 5673 5675 5677 5678 5679 5680 5681 5682 5683 5684 5685 5686 5686 5686 5686 5686 5686 5685 5684 5683 5682 5680 5679 5679 5678 5676
5623 5626 5628 5631 5635 5638 5641 5643 5646 5648 5650 5652 5654 5656 5658 5660 5662 5664 5665 5667 5668 5670 5671 5672 5673 5674 5675 5675 5676 5676 5677 5676 5676 5676 5675 5674 5673 5671 5670 5669 5668 5668 5666
5615 5618 5620 5623 5626 5628 5631 5634 5636 5638 5640 5642 5644 5647 5649 5651 5652 5654 5655 5657 5658 5660 5661 5662 5663 5664 5664 5665 5666 5666 5667 5667 5666 5666 5665 5663 5662 5661 5660 5659 5658 5657 5655
5608 5610 5613 5615 5617 5620 5622 5625 5627 5629 5631 5632 5635 5637 5639 5641 5642 5644 5645 5647 5648 5649 5650 5652 5653 5654 5654 5655 5656 5656 5656 5656 5656 5655 5654 5653 5652 5651 5649 5648 5647 5646 5644
5601 5603 5605 5607 5609 5611 5614 5616 5618 5619 5621 5623 5625 5627 5629 5630 5632 5634 5635 5637 5638 5639 5640 5642 5643 5643 5644 5645 5645 5646 5646 5646 5645 5645 5644 5643 5641 5640 5639 5638 5636 5635 5633
5593 5595 5597 5599 5601 5603 5605 5607 5608 5610 5611 5613 5615 5617 5618 5620 5622 5623 5625 5626 5628 5629 5630 5631 5632 5633 5634 5634 5634 5635 5635 5635 5634 5634 5633 5632 5630 5629 5628 5626 5625 5623 5622
5586 5588 5589 5591 5592 5594 5596 5598 5599 5601 5602 5603 5605 5607 5608 5610 5612 5613 5615 5616 5617 5619 5620 5621 5622 5622 5623 5623 5624 5624 5624 5624 5623 5622 5622 5620 5619 5618 5616 5615 5613 5612 5610
5578 5580 5581 5583 5584 5586 5587 5589 5590 5591 5593 5594 5595 5597 5598 5600 5601 5603 5604 5606 5607 5608 5609 5610 5611 5611 5612 5613 5613 5613 5613 5612 5612 5611 5610 5609 5607 5606 5605 5603 5602 5600 5599
5569 5571 5573 5575 5576 5577 5579 5580 5581 5582 5583 5585 5586 5587 5588 5590 5591 5592 5594 5595 5596 5597 5599 5599 5600 5601 5601 5602 5602 5602 5602 5601 5601 5600 5599 5597 5596 5594 5593 5592 5590 5589 5587
5561 5563 5564 5566 5568 5569 5570 5572 5573 5574 5574 5575 5576 5577 5578 5580 5581 5582 5583 5584 5586 5587 5588 5589 5589 5590 5590 5590 5591 5590 5590 5590 5589 5588 5587 5586 5584 5583 5582 5581 5579 5578 5576
5553 5555 5556 5558 5559 5560 5561 5562 5564 5564 5565 5566 5567 5567 5568 5570 5571 5572 5573 5574 5575 5577 5578 5578 5579 5579 5580 5580 5580 5579 5579 5579 5578 5577 5576 5574 5573 5572 5571 5570 5569 5567 5566
5545 5546 5548 5549 5550 5551 5552 5553 5554 5555 5556 5557 5557 5558 5559 5560 5561 5562 5563 5564 5565 5566 5567 5568 5568 5569 5569 5568 5568 5568 5568 5567 5567 5566 5565 5563 5562 5561 5560 5559 5558 5557 5555
5537 5538 5539 5540 5541 5542 5543 5544 5545 5546 5547 5547 5547 5548 5549 5550 5551 5552 5553 5554 5555 5556 5557 5557 5558 5558 5558 5558 5557 5557 5557 5557 5556 5555 5554 5552 5551 5550 5549 5548 5546 5545 5544
5529 5530 5531 5531 5532 5533 5534 5535 5536 5537 5537 5537 5538 5538 5539 5540 5541 5542 5543 5544 5545 5545 5546 5547 5547 5547 5547 5547 5547 5546 5546 5545 5544 5543 5542 5541 5540 5539 5538 5536 5535 5534 5532
5520 5521 5522 5523 5523 5524 5525 5526 5527 5527 5527 5528 5528 5529 5530 5530 5531 5532 5533 5534 5535 5535 5536 5536 5536 5537 5536 5536 5536 5535 5535 5534 5533 5533 5532 5531 5529 5528 5527 5526 5524 5523 5521
5512 5513 5514 5514 5515 5515 5516 5516 5517 5517 5518 5519 5519 5520 5520 5521 5522 5523 5524 5524 5525 5526 5526 5526 5527 5527 5526 5526 5525 5524 5524 5523 5522 5522 5521 5520 5519 5518 5517 5515 5514 5512 5511
5504 5504 5505 5506 5506 5506 5506 5507 5508 5508 5509 5509 5510 5510 5511 5512 5512 5513 5514 5515 5516 5516 5516 5516 5517 5516 5516 5515 5515 5514 5514 5513 5512 5512 5511 5510 5509 5508 5507 5505 5504 5502 5501
5495 5496 5497 5497 5497 5497 5498 5498 5499 5499 5500 5500 5501 5501 5502 5503 5503 5504 5505 5505 5506 5506 5507 5507 5506 5506 5506 5505 5505 5504 5504 5503 5503 5502 5501 5500 5499 5498 5497 5495 5494 5492 5490
5487 5487 5488 5489 5489 5489 5489 5490 5490 5490 5491 5491 5492 5492 5493 5493 5494 5495 5496 5496 5497 5497 5497 5496 5496 5496 5496 5495 5495 5495 5494 5494 5493 5492 5491 5491 5490 5489 5487 5486 5484 5483 5481